This is the latest recevied weather packets stored in our database for station/object N2XP-2. If no packets are shown the sender has not sent any weather packets the latest 10 day(s).
| Time | Temp. | Humidity | Pressure | Rain* | Wind** | Luminosity | Snow |
|---|---|---|---|---|---|---|---|
| 1778035289 | 20° C | 71% | 1012 hPa | 0 mm | 1.79 m/s, 229° | - | - |
| 1778035170 | 20° C | 71% | 1012 hPa | 0 mm | 1.79 m/s, 229° | - | - |
| 1778034871 | 20° C | 71% | 1012.1 hPa | 0 mm | 1.34 m/s, 255° | - | - |
| 1778034741 | 20° C | 70% | 1012.1 hPa | 0 mm | 1.34 m/s, 266° | - | - |
| 1778034572 | 20° C | 70% | 1012.1 hPa | 0 mm | 1.34 m/s, 266° | - | - |
| 1778034374 | 20° C | 69% | 1012.1 hPa | 0 mm | 2.24 m/s, 207° | - | - |
| 1778034367 | 20° C | 69% | 1012.1 hPa | 0 mm | 2.68 m/s, 252° | - | - |
| 1778034359 | 20° C | 69% | 1012.1 hPa | 0 mm | 2.68 m/s, 200° | - | - |
| 1778034268 | 20° C | 70% | 1012.1 hPa | 0 mm | 3.13 m/s, 226° | - | - |
| 1778033969 | 20° C | 70% | 1012.1 hPa | 0 mm | 2.68 m/s, 156° | - | - |
| 1778033670 | 20° C | 70% | 1012.2 hPa | 0 mm | 1.79 m/s, 207° | - | - |
| 1778033366 | 20° C | 70% | 1012.2 hPa | 0 mm | 1.79 m/s, 204° | - | - |
| 1778033066 | 20° C | 69% | 1012.1 hPa | 0 mm | 2.24 m/s, 207° | - | - |
| 1778032767 | 20° C | 69% | 1012.1 hPa | 0 mm | 2.68 m/s, 252° | - | - |
| 1778032464 | 20° C | 69% | 1012.1 hPa | 0 mm | 2.68 m/s, 200° | - | - |
| 1778032450 | 20.56° C | 67% | 1012 hPa | 0 mm | 1.34 m/s, 211° | - | - |
| 1778032441 | 20.56° C | 67% | 1012 hPa | 0 mm | 2.68 m/s, 229° | - | - |
| 1778032152 | 20° C | 69% | 1012 hPa | 0 mm | 2.24 m/s, 228° | - | - |
| 1778031853 | 20.56° C | 68% | 1012 hPa | 0 mm | 2.24 m/s, 246° | - | - |
| 1778031550 | 20.56° C | 68% | 1012 hPa | 0 mm | 1.34 m/s, 297° | - | - |
| 1778031250 | 20.56° C | 68% | 1012 hPa | 0 mm | 1.79 m/s, 222° | - | - |
| 1778030951 | 20.56° C | 67% | 1012 hPa | 0 mm | 1.34 m/s, 211° | - | - |
| 1778030890 | 20.56° C | 67% | 1012 hPa | 0 mm | 2.68 m/s, 229° | - | - |
| 1778030648 | 20.56° C | 67% | 1012 hPa | 0 mm | 2.68 m/s, 229° | - | - |
| 1778030535 | 20.56° C | 64% | 1011.6 hPa | 0 mm | 2.68 m/s, 260° | - | - |
* Rain latest hour (hover to see other rain measurements)
** Current wind speed in m/s (hover to see current wind gust speed)